TimeCST,TemperatureF,Dew PointF,Humidity,Sea Level PressureIn,VisibilityMPH,Wind Direction,Wind SpeedMPH,Gust SpeedMPH,PrecipitationIn,Events,Conditions,WindDirDegrees,DateUTC
12:51 AM,48.9,34.0,56,30.39,10.0,North,8.1,-,N/A,,Clear,360,2012-01-29 06:51:00
1:51 AM,48.9,34.0,56,30.38,10.0,NNE,12.7,-,N/A,,Clear,20,2012-01-29 07:51:00
2:51 AM,50.0,33.1,52,30.38,10.0,NNE,10.4,-,N/A,,Clear,30,2012-01-29 08:51:00
3:51 AM,45.0,33.1,63,30.39,10.0,North,8.1,-,N/A,,Clear,350,2012-01-29 09:51:00
4:51 AM,44.1,32.0,63,30.38,10.0,North,13.8,-,N/A,,Clear,360,2012-01-29 10:51:00
5:51 AM,45.0,33.1,63,30.40,10.0,North,15.0,-,N/A,,Clear,10,2012-01-29 11:51:00
6:51 AM,45.0,32.0,60,30.42,10.0,NNE,13.8,-,N/A,,Clear,20,2012-01-29 12:51:00
7:51 AM,46.0,33.1,61,30.44,10.0,NNE,10.4,-,N/A,,Clear,20,2012-01-29 13:51:00
8:51 AM,52.0,35.1,53,30.45,10.0,NNE,11.5,-,N/A,,Clear,30,2012-01-29 14:51:00
9:51 AM,55.9,37.9,51,30.46,10.0,NE,9.2,-,N/A,,Clear,40,2012-01-29 15:51:00
10:51 AM,60.1,39.9,47,30.47,10.0,NE,12.7,-,N/A,,Clear,40,2012-01-29 16:51:00
11:51 AM,64.9,46.0,50,30.45,10.0,ENE,9.2,17.3,N/A,,Clear,60,2012-01-29 17:51:00
12:51 PM,66.0,48.0,52,30.42,10.0,ENE,11.5,-,N/A,,Partly Cloudy,70,2012-01-29 18:51:00
1:51 PM,66.9,48.0,51,30.38,10.0,East,12.7,-,N/A,,Partly Cloudy,80,2012-01-29 19:51:00
2:51 PM,66.0,46.0,48,30.36,10.0,East,11.5,-,N/A,,Scattered Clouds,100,2012-01-29 20:51:00
3:51 PM,64.9,46.9,52,30.35,10.0,East,15.0,-,N/A,,Partly Cloudy,100,2012-01-29 21:51:00
4:51 PM,64.0,46.9,54,30.35,10.0,East,13.8,-,N/A,,Partly Cloudy,90,2012-01-29 22:51:00
5:51 PM,62.1,48.9,62,30.34,10.0,East,16.1,-,N/A,,Clear,80,2012-01-29 23:51:00
6:51 PM,60.1,50.0,69,30.34,10.0,East,10.4,-,N/A,,Clear,80,2012-01-30 00:51:00
7:51 PM,57.9,48.9,72,30.35,10.0,East,5.8,-,N/A,,Clear,90,2012-01-30 01:51:00
8:51 PM,57.0,48.9,74,30.35,10.0,East,4.6,-,N/A,,Clear,90,2012-01-30 02:51:00
9:51 PM,55.9,48.9,77,30.34,10.0,East,4.6,-,N/A,,Clear,80,2012-01-30 03:51:00
10:51 PM,57.0,50.0,77,30.32,10.0,ENE,4.6,-,N/A,,Clear,60,2012-01-30 04:51:00
11:51 PM,55.0,50.0,83,30.32,10.0,NE,5.8,-,N/A,,Clear,40,2012-01-30 05:51:00